This is the latest recevied weather packets stored in our database for station/object W4TJP. If no packets are shown the sender has not sent any weather packets the latest 10 day(s).
| Time | Temp. | Humidity | Pressure | Rain* | Wind** | Luminosity | Snow |
|---|---|---|---|---|---|---|---|
| 1777951625 | 15.56° C | 69% | 1012.4 hPa | 0 mm | - | 0 W/m² | - |
| 1777951320 | 15.56° C | 69% | 1012.3 hPa | 0 mm | - | 0 W/m² | - |
| 1777951018 | 15.56° C | 71% | 1012.2 hPa | 0 mm | - | 0 W/m² | - |
| 1777950714 | 15.56° C | 69% | 1012.3 hPa | 0 mm | - | 0 W/m² | - |
| 1777950411 | 15.56° C | 71% | 1012.3 hPa | 0 mm | - | 0 W/m² | - |
| 1777950107 | 15.56° C | 69% | 1012.1 hPa | 0 mm | - | 0 W/m² | - |
| 1777949803 | 15.56° C | 71% | 1012.4 hPa | 0 mm | - | 0 W/m² | - |
| 1777949502 | 15.56° C | 70% | 1012.2 hPa | 0 mm | - | 0 W/m² | - |
| 1777949199 | 15.56° C | 69% | 1012.3 hPa | 0 mm | - | 0 W/m² | - |
| 1777948896 | 16.11° C | 72% | 1012.3 hPa | 0 mm | - | 0 W/m² | - |
| 1777948594 | 16.67° C | 69% | 1012.2 hPa | 0 mm | - | 0 W/m² | - |
| 1777948291 | 15.56° C | 69% | 1012.3 hPa | 0 mm | - | 0 W/m² | - |
| 1777947988 | 15.56° C | 72% | 1012.3 hPa | 0 mm | - | 0 W/m² | - |
| 1777947685 | 15.56° C | 72% | 1012.1 hPa | 0 mm | - | 0 W/m² | - |
| 1777947382 | 15.56° C | 72% | 1012.3 hPa | 0 mm | - | 0 W/m² | - |
| 1777947079 | 15° C | 76% | 1012.1 hPa | 0 mm | - | 0 W/m² | - |
| 1777946774 | 15° C | 77% | 1012.1 hPa | 0 mm | - | 0 W/m² | - |
| 1777946471 | 15° C | 78% | 1012.2 hPa | 0 mm | - | 0 W/m² | - |
| 1777946168 | 15° C | 79% | 1012.1 hPa | 0 mm | - | 0 W/m² | - |
| 1777945864 | 15.56° C | 77% | 1012.3 hPa | 0 mm | - | 0 W/m² | - |
| 1777945561 | 15° C | 76% | 1012.2 hPa | 0 mm | - | 0 W/m² | - |
| 1777945258 | 14.44° C | 79% | 1012.1 hPa | 0 mm | - | 0 W/m² | - |
| 1777944955 | 14.44° C | 79% | 1012.1 hPa | 0 mm | - | 0 W/m² | - |
| 1777944653 | 14.44° C | 78% | 1012.1 hPa | 0 mm | - | 0 W/m² | - |
| 1777944350 | 14.44° C | 77% | 1012.2 hPa | 0 mm | - | 0 W/m² | - |
* Rain latest hour (hover to see other rain measurements)
** Current wind speed in m/s (hover to see current wind gust speed)